Time,TemperatureF,DewpointF,PressureIn,WindDirection,WindDirectionDegrees,WindSpeedMPH,WindSpeedGustMPH,Humidity,HourlyPrecipIn,Conditions,Clouds,dailyrainin,SoftwareType,DateUTC
2013-04-05 00:00:00,39.2,8.8,28.26,SE,135,2.0,7.0,28,0.00,,,0.00,meteohub,2013-04-05 04:00:00,
2013-04-05 00:02:00,39.2,8.1,28.26,SE,135,2.0,4.0,27,0.00,,,0.00,meteohub,2013-04-05 04:02:00,
2013-04-05 00:04:00,39.4,7.3,28.26,East,90,2.0,4.0,26,0.00,,,0.00,meteohub,2013-04-05 04:04:00,
2013-04-05 00:10:00,39.4,7.3,28.26,SE,135,3.0,4.0,26,0.00,,,0.00,meteohub,2013-04-05 04:10:00,
2013-04-05 00:15:00,39.4,7.3,28.26,East,90,2.0,4.0,26,0.00,,,0.00,meteohub,2013-04-05 04:15:00,
2013-04-05 00:20:00,38.8,11.5,28.26,SE,135,2.0,4.0,32,0.00,,,0.00,meteohub,2013-04-05 04:20:00,
2013-04-05 00:25:00,37.9,12.7,28.26,South,180,4.0,4.0,35,0.00,,,0.00,meteohub,2013-04-05 04:25:00,
2013-04-05 00:30:00,38.7,9.1,28.25,East,90,3.0,6.0,29,0.00,,,0.00,meteohub,2013-04-05 04:30:00,
2013-04-05 00:35:00,38.7,10.6,28.25,NW,315,1.0,6.0,31,0.00,,,0.00,meteohub,2013-04-05 04:35:00,
2013-04-05 00:41:00,37.9,12.7,28.25,East,90,2.0,6.0,35,0.00,,,0.00,meteohub,2013-04-05 04:41:00,
2013-04-05 00:46:00,37.2,12.7,28.25,West,270,3.0,4.0,36,0.00,,,0.00,meteohub,2013-04-05 04:46:00,
2013-04-05 00:51:00,36.7,12.9,28.24,East,90,2.0,4.0,37,0.00,,,0.00,meteohub,2013-04-05 04:51:00,
2013-04-05 00:57:00,36.9,10.4,28.24,East,90,4.0,4.0,33,0.00,,,0.00,meteohub,2013-04-05 04:57:00,
2013-04-05 01:02:00,36.7,12.2,28.24,SW,225,2.0,4.0,36,0.00,,,0.00,meteohub,2013-04-05 05:02:00,
2013-04-05 01:07:00,37.0,9.9,28.24,SW,225,2.0,4.0,32,0.00,,,0.00,meteohub,2013-04-05 05:07:00,
2013-04-05 01:12:00,36.9,10.4,28.23,ENE,68,8.0,8.0,33,0.00,,,0.00,meteohub,2013-04-05 05:12:00,
2013-04-05 01:18:00,36.0,12.7,28.24,South,180,2.0,8.0,38,0.00,,,0.00,meteohub,2013-04-05 05:18:00,
2013-04-05 01:23:00,36.3,10.6,28.23,South,180,4.0,8.0,34,0.00,,,0.00,meteohub,2013-04-05 05:23:00,
2013-04-05 01:28:00,36.1,11.1,28.22,NNW,338,2.0,8.0,35,0.00,,,0.00,meteohub,2013-04-05 05:28:00,
2013-04-05 01:33:00,35.6,12.6,28.22,South,180,3.0,4.0,38,0.00,,,0.00,meteohub,2013-04-05 05:33:00,
2013-04-05 01:38:00,35.2,12.7,28.22,SE,135,2.0,4.0,39,0.00,,,0.00,meteohub,2013-04-05 05:38:00,
2013-04-05 01:44:00,35.4,11.7,28.21,North,0,11.0,11.0,37,0.00,,,0.00,meteohub,2013-04-05 05:44:00,
2013-04-05 01:49:00,36.3,6.3,28.21,North,0,4.0,11.0,28,0.00,,,0.00,meteohub,2013-04-05 05:49:00,
2013-04-05 01:55:00,36.7,5.0,28.21,North,0,3.0,11.0,26,0.00,,,0.00,meteohub,2013-04-05 05:55:00,
2013-04-05 02:00:00,37.6,4.1,28.21,East,90,3.0,11.0,24,0.00,,,0.00,meteohub,2013-04-05 06:00:00,
2013-04-05 02:05:00,38.7,3.0,28.20,South,180,8.0,8.0,22,0.00,,,0.00,meteohub,2013-04-05 06:05:00,
2013-04-05 02:10:00,39.7,1.9,28.20,East,90,3.0,8.0,20,0.00,,,0.00,meteohub,2013-04-05 06:10:00,
2013-04-05 02:15:00,39.9,2.1,28.20,SE,135,7.0,8.0,20,0.00,,,0.00,meteohub,2013-04-05 06:15:00,
2013-04-05 02:21:00,39.9,2.1,28.20,West,270,3.0,8.0,20,0.00,,,0.00,meteohub,2013-04-05 06:21:00,
2013-04-05 02:26:00,40.5,1.4,28.19,South,180,7.0,10.0,19,0.00,,,0.00,meteohub,2013-04-05 06:26:00,
2013-04-05 02:31:00,40.5,1.4,28.19,NE,45,5.0,10.0,19,0.00,,,0.00,meteohub,2013-04-05 06:31:00,
2013-04-05 02:36:00,40.6,1.6,28.19,SE,135,2.0,10.0,19,0.00,,,0.00,meteohub,2013-04-05 06:36:00,
2013-04-05 02:42:00,40.6,1.6,28.19,North,0,2.0,8.0,19,0.00,,,0.00,meteohub,2013-04-05 06:42:00,
2013-04-05 02:47:00,39.9,2.1,28.19,SE,135,4.0,7.0,20,0.00,,,0.00,meteohub,2013-04-05 06:47:00,
2013-04-05 02:52:00,39.0,3.4,28.19,East,90,3.0,6.0,22,0.00,,,0.00,meteohub,2013-04-05 06:52:00,
2013-04-05 02:57:00,37.8,3.2,28.18,East,90,4.0,6.0,23,0.00,,,0.00,meteohub,2013-04-05 06:57:00,
2013-04-05 03:02:00,36.5,1.2,28.18,South,180,4.0,6.0,22,0.00,,,0.00,meteohub,2013-04-05 07:02:00,
2013-04-05 03:07:00,35.6,2.3,28.18,SE,135,7.0,7.0,24,0.00,,,0.00,meteohub,2013-04-05 07:07:00,
2013-04-05 03:13:00,35.6,0.5,28.17,East,90,5.0,7.0,22,0.00,,,0.00,meteohub,2013-04-05 07:13:00,
2013-04-05 03:18:00,36.1,-2.2,28.18,East,90,6.0,7.0,19,0.00,,,0.00,meteohub,2013-04-05 07:18:00,
2013-04-05 03:23:00,37.4,1.9,28.17,South,180,5.0,10.0,22,0.00,,,0.00,meteohub,2013-04-05 07:23:00,
2013-04-05 03:29:00,37.8,2.3,28.18,West,270,3.0,10.0,22,0.00,,,0.00,meteohub,2013-04-05 07:29:00,
2013-04-05 03:34:00,36.9,-2.7,28.17,NE,45,2.0,10.0,18,0.00,,,0.00,meteohub,2013-04-05 07:34:00,
2013-04-05 03:40:00,37.9,1.4,28.17,NW,315,3.0,6.0,21,0.00,,,0.00,meteohub,2013-04-05 07:40:00,
2013-04-05 03:45:00,37.8,0.3,28.17,North,0,8.0,9.0,20,0.00,,,0.00,meteohub,2013-04-05 07:45:00,
2013-04-05 03:50:00,39.0,2.3,28.18,WNW,293,9.0,11.0,21,0.00,,,0.00,meteohub,2013-04-05 07:50:00,
2013-04-05 03:55:00,39.6,1.8,28.18,NW,315,5.0,11.0,20,0.00,,,0.00,meteohub,2013-04-05 07:55:00,
2013-04-05 04:00:00,39.7,0.9,28.17,North,0,10.0,11.0,19,0.00,,,0.00,meteohub,2013-04-05 08:00:00,
2013-04-05 04:05:00,39.6,1.8,28.18,NW,315,8.0,11.0,20,0.00,,,0.00,meteohub,2013-04-05 08:05:00,
2013-04-05 04:11:00,39.2,0.3,28.18,NW,315,4.0,10.0,19,0.00,,,0.00,meteohub,2013-04-05 08:11:00,
2013-04-05 04:16:00,38.7,1.0,28.18,NW,315,2.0,10.0,20,0.00,,,0.00,meteohub,2013-04-05 08:16:00,
2013-04-05 04:21:00,38.3,0.7,28.18,NW,315,4.0,8.0,20,0.00,,,0.00,meteohub,2013-04-05 08:21:00,
2013-04-05 04:27:00,37.8,1.4,28.18,NE,45,2.0,4.0,21,0.00,,,0.00,meteohub,2013-04-05 08:27:00,
2013-04-05 04:32:00,37.6,2.1,28.18,East,90,4.0,4.0,22,0.00,,,0.00,meteohub,2013-04-05 08:32:00,
2013-04-05 04:37:00,37.4,1.9,28.18,East,90,4.0,4.0,22,0.00,,,0.00,meteohub,2013-04-05 08:37:00,
2013-04-05 04:42:00,37.2,-2.4,28.18,ESE,113,4.0,4.0,18,0.00,,,0.00,meteohub,2013-04-05 08:42:00,
2013-04-05 04:48:00,37.2,-2.4,28.17,SW,225,2.0,4.0,18,0.00,,,0.00,meteohub,2013-04-05 08:48:00,
2013-04-05 04:53:00,36.3,-2.0,28.17,ESE,113,2.0,4.0,19,0.00,,,0.00,meteohub,2013-04-05 08:53:00,
2013-04-05 04:58:00,35.8,-1.3,28.17,East,90,4.0,4.0,20,0.00,,,0.00,meteohub,2013-04-05 08:58:00,
2013-04-05 05:04:00,35.6,-1.5,28.17,SE,135,2.0,4.0,20,0.00,,,0.00,meteohub,2013-04-05 09:04:00,
2013-04-05 05:09:00,35.2,-0.8,28.17,West,270,3.0,4.0,21,0.00,,,0.00,meteohub,2013-04-05 09:09:00,
2013-04-05 05:15:00,34.5,1.4,28.15,West,270,2.0,4.0,24,0.00,,,0.00,meteohub,2013-04-05 09:15:00,
2013-04-05 05:20:00,34.3,2.1,28.16,SE,135,2.0,3.0,25,0.00,,,0.00,meteohub,2013-04-05 09:20:00,
2013-04-05 05:25:00,33.8,5.7,28.16,South,180,2.0,3.0,30,0.00,,,0.00,meteohub,2013-04-05 09:25:00,
2013-04-05 05:30:00,33.4,6.8,28.15,SW,225,2.0,4.0,32,0.00,,,0.00,meteohub,2013-04-05 09:30:00,
2013-04-05 05:35:00,33.3,7.9,28.16,SW,225,0.0,4.0,34,0.00,,,0.00,meteohub,2013-04-05 09:35:00,
2013-04-05 05:41:00,32.9,11.3,28.16,SSE,158,3.0,3.0,40,0.00,,,0.00,meteohub,2013-04-05 09:41:00,
2013-04-05 05:46:00,32.5,10.9,28.17,South,180,4.0,4.0,40,0.00,,,0.00,meteohub,2013-04-05 09:46:00,
2013-04-05 05:51:00,32.4,7.7,28.15,SE,135,2.0,4.0,35,0.00,,,0.00,meteohub,2013-04-05 09:51:00,
2013-04-05 05:56:00,32.0,8.1,28.16,West,270,2.0,4.0,36,0.00,,,0.00,meteohub,2013-04-05 09:56:00,
2013-04-05 06:01:00,31.6,10.6,28.16,SE,135,2.0,4.0,41,0.00,,,0.00,meteohub,2013-04-05 10:01:00,
2013-04-05 06:06:00,30.9,10.6,28.16,South,180,1.0,2.0,42,0.00,,,0.00,meteohub,2013-04-05 10:06:00,
2013-04-05 06:12:00,30.6,10.2,28.16,NW,315,2.0,2.0,42,0.00,,,0.00,meteohub,2013-04-05 10:12:00,
2013-04-05 06:18:00,30.0,10.2,28.16,West,270,2.0,2.0,43,0.00,,,0.00,meteohub,2013-04-05 10:18:00,
2013-04-05 06:23:00,29.7,9.9,28.16,SE,135,2.0,2.0,43,0.00,,,0.00,meteohub,2013-04-05 10:23:00,
2013-04-05 06:29:00,29.5,10.8,28.16,South,180,2.0,2.0,45,0.00,,,0.00,meteohub,2013-04-05 10:29:00,
2013-04-05 06:34:00,29.1,11.5,28.16,SW,225,2.0,4.0,47,0.00,,,0.00,meteohub,2013-04-05 10:34:00,
2013-04-05 06:39:00,28.9,11.3,28.16,SW,225,0.0,4.0,47,0.00,,,0.00,meteohub,2013-04-05 10:39:00,
2013-04-05 06:45:00,28.8,11.1,28.16,South,180,3.0,4.0,47,0.00,,,0.00,meteohub,2013-04-05 10:45:00,
2013-04-05 06:50:00,28.8,11.1,28.17,North,0,1.0,3.0,47,0.00,,,0.00,meteohub,2013-04-05 10:50:00,
2013-04-05 06:55:00,28.4,10.8,28.16,South,180,2.0,3.0,47,0.00,,,0.00,meteohub,2013-04-05 10:55:00,
2013-04-05 07:00:00,28.4,10.8,28.16,SE,135,2.0,3.0,47,0.00,,,0.00,meteohub,2013-04-05 11:00:00,
2013-04-05 07:05:00,28.2,10.0,28.16,SE,135,1.0,2.0,46,0.00,,,0.00,meteohub,2013-04-05 11:05:00,
2013-04-05 07:11:00,28.2,11.1,28.16,SE,135,2.0,3.0,48,0.00,,,0.00,meteohub,2013-04-05 11:11:00,
2013-04-05 07:16:00,28.2,11.1,28.17,West,270,1.0,3.0,48,0.00,,,0.00,meteohub,2013-04-05 11:16:00,
2013-04-05 07:21:00,28.0,10.9,28.17,South,180,2.0,3.0,48,0.00,,,0.00,meteohub,2013-04-05 11:21:00,
2013-04-05 07:26:00,28.0,10.9,28.17,North,0,1.0,2.0,48,0.00,,,0.00,meteohub,2013-04-05 11:26:00,
2013-04-05 07:32:00,28.0,10.9,28.17,North,0,0.0,2.0,48,0.00,,,0.00,meteohub,2013-04-05 11:32:00,
2013-04-05 07:37:00,28.0,10.9,28.16,North,0,2.0,2.0,48,0.00,,,0.00,meteohub,2013-04-05 11:37:00,
2013-04-05 07:42:00,28.6,13.1,28.16,North,0,2.0,2.0,52,0.00,,,0.00,meteohub,2013-04-05 11:42:00,
2013-04-05 07:47:00,29.3,13.5,28.17,North,0,2.0,2.0,51,0.00,,,0.00,meteohub,2013-04-05 11:47:00,
2013-04-05 07:52:00,30.2,12.9,28.17,SE,135,2.0,2.0,48,0.00,,,0.00,meteohub,2013-04-05 11:52:00,
2013-04-05 07:57:00,31.1,13.6,28.17,South,180,2.0,2.0,48,0.00,,,0.00,meteohub,2013-04-05 11:57:00,
2013-04-05 08:02:00,31.6,12.7,28.17,East,90,2.0,4.0,45,0.00,,,0.00,meteohub,2013-04-05 12:02:00,
2013-04-05 08:07:00,32.2,12.7,28.17,East,90,2.0,4.0,44,0.00,,,0.00,meteohub,2013-04-05 12:07:00,
2013-04-05 08:13:00,32.9,12.4,28.17,East,90,2.0,4.0,42,0.00,,,0.00,meteohub,2013-04-05 12:13:00,
2013-04-05 08:18:00,33.6,12.4,28.16,East,90,2.0,3.0,41,0.00,,,0.00,meteohub,2013-04-05 12:18:00,
2013-04-05 08:23:00,34.0,12.2,28.17,NE,45,3.0,3.0,40,0.00,,,0.00,meteohub,2013-04-05 12:23:00,
2013-04-05 08:29:00,34.7,12.2,28.17,North,0,3.0,3.0,39,0.00,,,0.00,meteohub,2013-04-05 12:29:00,
2013-04-05 08:34:00,35.4,12.4,28.16,NNW,338,3.0,4.0,38,0.00,,,0.00,meteohub,2013-04-05 12:34:00,
2013-04-05 08:39:00,36.1,11.1,28.16,North,0,2.0,4.0,35,0.00,,,0.00,meteohub,2013-04-05 12:39:00,
2013-04-05 08:44:00,37.9,12.7,28.15,North,0,5.0,5.0,35,0.00,,,0.00,meteohub,2013-04-05 12:44:00,
2013-04-05 08:50:00,39.2,8.1,28.15,NW,315,6.0,7.0,27,0.00,,,0.00,meteohub,2013-04-05 12:50:00,
2013-04-05 08:55:00,40.1,6.3,28.15,NE,45,5.0,9.0,24,0.00,,,0.00,meteohub,2013-04-05 12:55:00,
2013-04-05 09:00:00,41.0,6.1,28.14,NE,45,7.0,9.0,23,0.00,,,0.00,meteohub,2013-04-05 13:00:00,
2013-04-05 09:06:00,41.7,5.7,28.15,North,0,8.0,9.0,22,0.00,,,0.00,meteohub,2013-04-05 13:06:00,
2013-04-05 09:11:00,42.3,4.1,28.14,North,0,8.0,8.0,20,0.00,,,0.00,meteohub,2013-04-05 13:11:00,
2013-04-05 09:17:00,42.4,4.1,28.14,North,0,8.0,10.0,20,0.00,,,0.00,meteohub,2013-04-05 13:17:00,
2013-04-05 09:22:00,42.6,4.3,28.14,NW,315,4.0,10.0,20,0.00,,,0.00,meteohub,2013-04-05 13:22:00,
2013-04-05 09:27:00,43.2,3.7,28.14,NE,45,5.0,11.0,19,0.00,,,0.00,meteohub,2013-04-05 13:27:00,
2013-04-05 09:32:00,43.5,3.9,28.14,North,0,8.0,11.0,19,0.00,,,0.00,meteohub,2013-04-05 13:32:00,
2013-04-05 09:37:00,43.5,3.9,28.14,NE,45,8.0,11.0,19,0.00,,,0.00,meteohub,2013-04-05 13:37:00,
2013-04-05 09:42:00,43.9,4.3,28.13,North,0,10.0,11.0,19,0.00,,,0.00,meteohub,2013-04-05 13:42:00,
2013-04-05 09:48:00,43.7,3.0,28.13,North,0,8.0,11.0,18,0.00,,,0.00,meteohub,2013-04-05 13:48:00,
2013-04-05 09:53:00,44.2,4.6,28.13,North,0,8.0,11.0,19,0.00,,,0.00,meteohub,2013-04-05 13:53:00,
2013-04-05 09:58:00,45.1,4.1,28.13,North,0,7.0,11.0,18,0.00,,,0.00,meteohub,2013-04-05 13:58:00,
2013-04-05 10:03:00,45.5,4.5,28.12,South,180,5.0,10.0,18,0.00,,,0.00,meteohub,2013-04-05 14:03:00,
2013-04-05 10:09:00,46.0,4.8,28.12,North,0,9.0,9.0,18,0.00,,,0.00,meteohub,2013-04-05 14:09:00,
2013-04-05 10:14:00,46.2,3.7,28.12,NW,315,4.0,9.0,17,0.00,,,0.00,meteohub,2013-04-05 14:14:00,
2013-04-05 10:19:00,46.4,7.5,28.12,North,0,4.0,9.0,20,0.00,,,0.00,meteohub,2013-04-05 14:19:00,
2013-04-05 10:24:00,46.6,6.4,28.11,NNE,23,6.0,9.0,19,0.00,,,0.00,meteohub,2013-04-05 14:24:00,
2013-04-05 10:30:00,46.4,6.4,28.11,NW,315,4.0,8.0,19,0.00,,,0.00,meteohub,2013-04-05 14:30:00,
2013-04-05 10:35:00,47.5,7.3,28.12,West,270,2.0,8.0,19,0.00,,,0.00,meteohub,2013-04-05 14:35:00,
2013-04-05 10:40:00,48.2,6.6,28.11,West,270,6.0,8.0,18,0.00,,,0.00,meteohub,2013-04-05 14:40:00,
2013-04-05 10:46:00,48.6,8.1,28.11,West,270,4.0,8.0,19,0.00,,,0.00,meteohub,2013-04-05 14:46:00,
2013-04-05 10:52:00,48.7,9.5,28.11,West,270,3.0,8.0,20,0.00,,,0.00,meteohub,2013-04-05 14:52:00,
2013-04-05 10:57:00,49.5,9.0,28.11,NW,315,4.0,8.0,19,0.00,,,0.00,meteohub,2013-04-05 14:57:00,
2013-04-05 11:02:00,49.8,9.1,28.11,NW,315,5.0,8.0,19,0.00,,,0.00,meteohub,2013-04-05 15:02:00,
2013-04-05 11:07:00,50.2,8.2,28.11,NW,315,4.0,6.0,18,0.00,,,0.00,meteohub,2013-04-05 15:07:00,
2013-04-05 11:12:00,50.0,8.1,28.10,North,0,3.0,7.0,18,0.00,,,0.00,meteohub,2013-04-05 15:12:00,
2013-04-05 11:17:00,50.0,9.3,28.11,North,0,8.0,8.0,19,0.00,,,0.00,meteohub,2013-04-05 15:17:00,
2013-04-05 11:22:00,49.1,9.7,28.11,North,0,11.0,11.0,20,0.00,,,0.00,meteohub,2013-04-05 15:22:00,
2013-04-05 11:28:00,48.9,10.8,28.10,North,0,11.0,17.0,21,0.00,,,0.00,meteohub,2013-04-05 15:28:00,
2013-04-05 11:33:00,49.1,10.8,28.10,North,0,8.0,17.0,21,0.00,,,0.00,meteohub,2013-04-05 15:33:00,
2013-04-05 11:38:00,48.9,10.8,28.11,NW,315,21.0,21.0,21,0.00,,,0.00,meteohub,2013-04-05 15:38:00,
2013-04-05 11:44:00,48.2,10.0,28.11,North,0,8.0,21.0,21,0.00,,,0.00,meteohub,2013-04-05 15:44:00,
2013-04-05 11:49:00,48.6,11.5,28.10,North,0,14.0,21.0,22,0.00,,,0.00,meteohub,2013-04-05 15:49:00,
2013-04-05 11:54:00,49.5,11.1,28.11,West,270,12.0,21.0,21,0.00,,,0.00,meteohub,2013-04-05 15:54:00,
2013-04-05 11:59:00,49.5,11.1,28.10,NW,315,8.0,16.0,21,0.00,,,0.00,meteohub,2013-04-05 15:59:00,
2013-04-05 12:05:00,49.1,10.8,28.10,North,0,8.0,15.0,21,0.00,,,0.00,meteohub,2013-04-05 16:05:00,
2013-04-05 12:10:00,48.7,11.7,28.10,ENE,68,10.0,15.0,22,0.00,,,0.00,meteohub,2013-04-05 16:10:00,
2013-04-05 12:16:00,49.3,12.0,28.10,SE,135,8.0,15.0,22,0.00,,,0.00,meteohub,2013-04-05 16:16:00,
2013-04-05 12:21:00,49.6,12.4,28.10,West,270,3.0,15.0,22,0.00,,,0.00,meteohub,2013-04-05 16:21:00,
2013-04-05 12:27:00,50.7,12.2,28.10,North,0,8.0,11.0,21,0.00,,,0.00,meteohub,2013-04-05 16:27:00,
2013-04-05 12:32:00,50.5,12.0,28.10,North,0,8.0,11.0,21,0.00,,,0.00,meteohub,2013-04-05 16:32:00,
2013-04-05 12:37:00,49.5,12.2,28.10,NE,45,8.0,13.0,22,0.00,,,0.00,meteohub,2013-04-05 16:37:00,
2013-04-05 12:42:00,49.5,14.2,28.09,NW,315,9.0,14.0,24,0.00,,,0.00,meteohub,2013-04-05 16:42:00,
2013-04-05 12:47:00,49.1,13.8,28.10,NW,315,11.0,15.0,24,0.00,,,0.00,meteohub,2013-04-05 16:47:00,
2013-04-05 12:52:00,49.1,13.8,28.09,North,0,13.0,17.0,24,0.00,,,0.00,meteohub,2013-04-05 16:52:00,
2013-04-05 12:58:00,48.6,13.5,28.09,North,0,7.0,17.0,24,0.00,,,0.00,meteohub,2013-04-05 16:58:00,
2013-04-05 13:03:00,48.9,13.6,28.09,NW,315,8.0,17.0,24,0.00,,,0.00,meteohub,2013-04-05 17:03:00,
2013-04-05 13:08:00,49.3,13.1,28.08,NW,315,7.0,17.0,23,0.00,,,0.00,meteohub,2013-04-05 17:08:00,
2013-04-05 13:14:00,49.3,13.1,28.09,NW,315,6.0,14.0,23,0.00,,,0.00,meteohub,2013-04-05 17:14:00,
2013-04-05 13:19:00,49.3,12.0,28.08,North,0,11.0,14.0,22,0.00,,,0.00,meteohub,2013-04-05 17:19:00,
2013-04-05 13:24:00,49.6,13.3,28.08,NE,45,11.0,14.0,23,0.00,,,0.00,meteohub,2013-04-05 17:24:00,
2013-04-05 13:29:00,50.0,13.6,28.08,North,0,12.0,15.0,23,0.00,,,0.00,meteohub,2013-04-05 17:29:00,
2013-04-05 13:34:00,49.3,13.1,28.07,NW,315,11.0,15.0,23,0.00,,,0.00,meteohub,2013-04-05 17:34:00,
2013-04-05 13:39:00,49.3,14.0,28.07,SW,225,6.0,17.0,24,0.00,,,0.00,meteohub,2013-04-05 17:39:00,
2013-04-05 13:45:00,49.3,13.1,28.07,NNW,338,11.0,17.0,23,0.00,,,0.00,meteohub,2013-04-05 17:45:00,
2013-04-05 13:50:00,48.9,11.7,28.06,NW,315,11.0,17.0,22,0.00,,,0.00,meteohub,2013-04-05 17:50:00,
2013-04-05 13:55:00,49.8,12.6,28.06,SW,225,6.0,16.0,22,0.00,,,0.00,meteohub,2013-04-05 17:55:00,
2013-04-05 14:00:00,49.6,12.4,28.06,North,0,8.0,16.0,22,0.00,,,0.00,meteohub,2013-04-05 18:00:00,
2013-04-05 14:05:00,49.1,11.8,28.06,NW,315,18.0,18.0,22,0.00,,,0.00,meteohub,2013-04-05 18:05:00,
2013-04-05 14:11:00,49.5,12.2,28.06,North,0,14.0,18.0,22,0.00,,,0.00,meteohub,2013-04-05 18:11:00,
2013-04-05 14:16:00,49.3,12.0,28.06,NW,315,15.0,18.0,22,0.00,,,0.00,meteohub,2013-04-05 18:16:00,
2013-04-05 14:21:00,49.5,11.1,28.05,North,0,21.0,21.0,21,0.00,,,0.00,meteohub,2013-04-05 18:21:00,
2013-04-05 14:26:00,48.6,10.4,28.05,NW,315,8.0,21.0,21,0.00,,,0.00,meteohub,2013-04-05 18:26:00,
2013-04-05 14:32:00,49.3,10.9,28.06,North,0,15.0,21.0,21,0.00,,,0.00,meteohub,2013-04-05 18:32:00,
2013-04-05 14:37:00,49.1,10.8,28.06,North,0,10.0,21.0,21,0.00,,,0.00,meteohub,2013-04-05 18:37:00,
2013-04-05 14:42:00,48.7,10.6,28.06,NNW,338,18.0,21.0,21,0.00,,,0.00,meteohub,2013-04-05 18:42:00,
2013-04-05 14:47:00,48.6,10.4,28.06,North,0,13.0,24.0,21,0.00,,,0.00,meteohub,2013-04-05 18:47:00,
2013-04-05 14:53:00,48.7,9.5,28.05,NE,45,10.0,24.0,20,0.00,,,0.00,meteohub,2013-04-05 18:53:00,
2013-04-05 14:58:00,48.4,10.2,28.05,North,0,21.0,25.0,21,0.00,,,0.00,meteohub,2013-04-05 18:58:00,
2013-04-05 15:03:00,48.2,10.0,28.05,NE,45,15.0,25.0,21,0.00,,,0.00,meteohub,2013-04-05 19:03:00,
2013-04-05 15:09:00,48.9,10.8,28.06,North,0,16.0,25.0,21,0.00,,,0.00,meteohub,2013-04-05 19:09:00,
2013-04-05 15:14:00,48.7,10.6,28.05,NW,315,14.0,25.0,21,0.00,,,0.00,meteohub,2013-04-05 19:14:00,
2013-04-05 15:20:00,48.6,10.4,28.06,NW,315,20.0,23.0,21,0.00,,,0.00,meteohub,2013-04-05 19:20:00,
2013-04-05 15:25:00,48.9,10.8,28.06,NW,315,12.0,20.0,21,0.00,,,0.00,meteohub,2013-04-05 19:25:00,
2013-04-05 15:30:00,48.7,9.5,28.06,North,0,5.0,20.0,20,0.00,,,0.00,meteohub,2013-04-05 19:30:00,
2013-04-05 15:35:00,48.6,10.4,28.06,SW,225,8.0,20.0,21,0.00,,,0.00,meteohub,2013-04-05 19:35:00,
2013-04-05 15:41:00,48.4,10.2,28.06,North,0,11.0,19.0,21,0.00,,,0.00,meteohub,2013-04-05 19:41:00,
2013-04-05 15:46:00,48.4,10.2,28.06,North,0,11.0,19.0,21,0.00,,,0.00,meteohub,2013-04-05 19:46:00,
2013-04-05 15:51:00,48.4,10.2,28.06,NW,315,15.0,17.0,21,0.00,,,0.00,meteohub,2013-04-05 19:51:00,
2013-04-05 15:56:00,48.4,10.2,28.06,North,0,11.0,23.0,21,0.00,,,0.00,meteohub,2013-04-05 19:56:00,
2013-04-05 16:02:00,48.2,10.0,28.06,North,0,13.0,23.0,21,0.00,,,0.00,meteohub,2013-04-05 20:02:00,
2013-04-05 16:07:00,46.8,9.9,28.06,North,0,15.0,23.0,22,0.00,,,0.00,meteohub,2013-04-05 20:07:00,
2013-04-05 16:12:00,46.6,9.7,28.06,North,0,14.0,23.0,22,0.00,,,0.00,meteohub,2013-04-05 20:12:00,
2013-04-05 16:17:00,45.7,6.8,28.06,North,0,17.0,21.0,20,0.00,,,0.00,meteohub,2013-04-05 20:17:00,
2013-04-05 16:22:00,46.4,10.6,28.06,North,0,12.0,17.0,23,0.00,,,0.00,meteohub,2013-04-05 20:22:00,
2013-04-05 16:27:00,46.6,11.7,28.07,North,0,15.0,19.0,24,0.00,,,0.00,meteohub,2013-04-05 20:27:00,
2013-04-05 16:32:00,46.2,8.4,28.07,North,0,17.0,19.0,21,0.00,,,0.00,meteohub,2013-04-05 20:32:00,
2013-04-05 16:38:00,45.9,7.0,28.06,North,0,17.0,20.0,20,0.00,,,0.00,meteohub,2013-04-05 20:38:00,
2013-04-05 16:43:00,45.9,7.0,28.06,North,0,17.0,20.0,20,0.00,,,0.00,meteohub,2013-04-05 20:43:00,
2013-04-05 16:48:00,45.5,5.5,28.07,WNW,293,21.0,22.0,19,0.00,,,0.00,meteohub,2013-04-05 20:48:00,
2013-04-05 16:53:00,45.3,5.5,28.08,NW,315,14.0,25.0,19,0.00,,,0.00,meteohub,2013-04-05 20:53:00,
2013-04-05 16:58:00,45.0,5.2,28.08,NW,315,9.0,25.0,19,0.00,,,0.00,meteohub,2013-04-05 20:58:00,
2013-04-05 17:03:00,44.8,7.2,28.08,North,0,17.0,25.0,21,0.00,,,0.00,meteohub,2013-04-05 21:03:00,
2013-04-05 17:09:00,44.2,7.7,28.09,NW,315,10.0,26.0,22,0.00,,,0.00,meteohub,2013-04-05 21:09:00,
2013-04-05 17:15:00,44.2,8.8,28.09,NW,315,15.0,26.0,23,0.00,,,0.00,meteohub,2013-04-05 21:15:00,
2013-04-05 17:20:00,44.1,8.6,28.09,NE,45,13.0,22.0,23,0.00,,,0.00,meteohub,2013-04-05 21:20:00,
2013-04-05 17:25:00,43.9,8.4,28.09,North,0,7.0,22.0,23,0.00,,,0.00,meteohub,2013-04-05 21:25:00,
2013-04-05 17:31:00,43.9,7.5,28.10,North,0,23.0,23.0,22,0.00,,,0.00,meteohub,2013-04-05 21:31:00,
2013-04-05 17:36:00,43.2,8.8,28.09,North,0,20.0,23.0,24,0.00,,,0.00,meteohub,2013-04-05 21:36:00,
2013-04-05 17:41:00,42.8,9.3,28.10,North,0,23.0,23.0,25,0.00,,,0.00,meteohub,2013-04-05 21:41:00,
2013-04-05 17:46:00,42.6,9.3,28.10,North,0,11.0,23.0,25,0.00,,,0.00,meteohub,2013-04-05 21:46:00,
2013-04-05 17:52:00,42.4,10.8,28.10,North,0,15.0,23.0,27,0.00,,,0.00,meteohub,2013-04-05 21:52:00,
2013-04-05 17:57:00,42.1,11.3,28.10,North,0,11.0,23.0,28,0.00,,,0.00,meteohub,2013-04-05 21:57:00,
2013-04-05 18:02:00,42.1,11.3,28.11,North,0,11.0,19.0,28,0.00,,,0.00,meteohub,2013-04-05 22:02:00,
2013-04-05 18:07:00,41.7,12.6,28.12,NW,315,8.0,20.0,30,0.00,,,0.00,meteohub,2013-04-05 22:07:00,
2013-04-05 18:12:00,41.4,12.9,28.12,NNW,338,16.0,20.0,31,0.00,,,0.00,meteohub,2013-04-05 22:12:00,
2013-04-05 18:17:00,40.3,12.7,28.13,WNW,293,10.0,24.0,32,0.00,,,0.00,meteohub,2013-04-05 22:17:00,
2013-04-05 18:22:00,40.1,13.3,28.13,North,0,21.0,24.0,33,0.00,,,0.00,meteohub,2013-04-05 22:22:00,
2013-04-05 18:27:00,39.7,12.9,28.13,NW,315,12.0,24.0,33,0.00,,,0.00,meteohub,2013-04-05 22:27:00,
2013-04-05 18:33:00,39.6,13.5,28.14,North,0,13.0,21.0,34,0.00,,,0.00,meteohub,2013-04-05 22:33:00,
2013-04-05 18:38:00,39.4,14.0,28.14,NE,45,12.0,21.0,35,0.00,,,0.00,meteohub,2013-04-05 22:38:00,
2013-04-05 18:43:00,39.0,14.4,28.14,North,0,14.0,18.0,36,0.00,,,0.00,meteohub,2013-04-05 22:43:00,
2013-04-05 18:48:00,38.8,13.5,28.15,North,0,9.0,18.0,35,0.00,,,0.00,meteohub,2013-04-05 22:48:00,
2013-04-05 18:54:00,38.7,12.7,28.16,North,0,14.0,18.0,34,0.00,,,0.00,meteohub,2013-04-05 22:54:00,
2013-04-05 18:59:00,38.5,13.3,28.15,North,0,8.0,15.0,35,0.00,,,0.00,meteohub,2013-04-05 22:59:00,
2013-04-05 19:05:00,38.1,13.5,28.16,NW,315,10.0,15.0,36,0.00,,,0.00,meteohub,2013-04-05 23:05:00,
2013-04-05 19:10:00,37.8,14.4,28.17,North,0,14.0,20.0,38,0.00,,,0.00,meteohub,2013-04-05 23:10:00,
2013-04-05 19:15:00,37.6,14.2,28.16,NW,315,8.0,20.0,38,0.00,,,0.00,meteohub,2013-04-05 23:15:00,
2013-04-05 19:21:00,37.4,14.2,28.16,NE,45,8.0,20.0,38,0.00,,,0.00,meteohub,2013-04-05 23:21:00,
2013-04-05 19:26:00,37.2,12.0,28.17,North,0,12.0,24.0,35,0.00,,,0.00,meteohub,2013-04-05 23:26:00,
2013-04-05 19:31:00,36.9,11.8,28.17,NW,315,15.0,24.0,35,0.00,,,0.00,meteohub,2013-04-05 23:31:00,
2013-04-05 19:37:00,36.7,12.9,28.17,NW,315,11.0,24.0,37,0.00,,,0.00,meteohub,2013-04-05 23:37:00,
2013-04-05 19:42:00,36.5,13.3,28.17,North,0,12.0,19.0,38,0.00,,,0.00,meteohub,2013-04-05 23:42:00,
2013-04-05 19:47:00,36.1,12.9,28.18,North,0,15.0,19.0,38,0.00,,,0.00,meteohub,2013-04-05 23:47:00,
2013-04-05 19:52:00,36.0,13.5,28.17,North,0,17.0,19.0,39,0.00,,,0.00,meteohub,2013-04-05 23:52:00,
2013-04-05 19:58:00,35.6,13.6,28.18,NNW,338,13.0,17.0,40,0.00,,,0.00,meteohub,2013-04-05 23:58:00,
2013-04-05 20:03:00,35.6,14.7,28.19,NW,315,10.0,24.0,42,0.00,,,0.00,meteohub,2013-04-06 00:03:00,
2013-04-05 20:08:00,35.2,16.0,28.19,North,0,11.0,24.0,45,0.00,,,0.00,meteohub,2013-04-06 00:08:00,
2013-04-05 20:13:00,35.1,16.3,28.19,North,0,15.0,24.0,46,0.00,,,0.00,meteohub,2013-04-06 00:13:00,
2013-04-05 20:19:00,34.9,16.2,28.19,NE,45,17.0,23.0,46,0.00,,,0.00,meteohub,2013-04-06 00:19:00,
2013-04-05 20:24:00,34.7,16.5,28.19,North,0,17.0,23.0,47,0.00,,,0.00,meteohub,2013-04-06 00:24:00,
2013-04-05 20:29:00,34.5,16.9,28.20,NW,315,17.0,21.0,48,0.00,,,0.00,meteohub,2013-04-06 00:29:00,
2013-04-05 20:34:00,34.3,16.7,28.20,North,0,21.0,21.0,48,0.00,,,0.00,meteohub,2013-04-06 00:34:00,
2013-04-05 20:40:00,34.2,16.5,28.20,NW,315,17.0,21.0,48,0.00,,,0.00,meteohub,2013-04-06 00:40:00,
2013-04-05 20:45:00,34.0,16.9,28.20,NW,315,11.0,21.0,49,0.00,,,0.00,meteohub,2013-04-06 00:45:00,
2013-04-05 20:50:00,33.8,17.1,28.21,NE,45,11.0,19.0,50,0.00,,,0.00,meteohub,2013-04-06 00:50:00,
2013-04-05 20:55:00,33.8,16.7,28.21,North,0,21.0,21.0,49,0.00,,,0.00,meteohub,2013-04-06 00:55:00,
2013-04-05 21:00:00,33.6,16.9,28.21,NNE,23,13.0,22.0,50,0.00,,,0.00,meteohub,2013-04-06 01:00:00,
2013-04-05 21:06:00,33.6,17.4,28.22,North,0,20.0,30.0,51,0.00,,,0.00,meteohub,2013-04-06 01:06:00,
2013-04-05 21:11:00,33.4,17.2,28.22,North,0,15.0,30.0,51,0.00,,,0.00,meteohub,2013-04-06 01:11:00,
2013-04-05 21:17:00,33.3,17.6,28.22,North,0,12.0,30.0,52,0.00,,,0.00,meteohub,2013-04-06 01:17:00,
2013-04-05 21:22:00,32.9,17.6,28.23,North,0,14.0,20.0,53,0.00,,,0.00,meteohub,2013-04-06 01:22:00,
2013-04-05 21:27:00,32.9,17.6,28.22,NNW,338,10.0,19.0,53,0.00,,,0.00,meteohub,2013-04-06 01:27:00,
2013-04-05 21:32:00,32.7,17.4,28.23,North,0,11.0,17.0,53,0.00,,,0.00,meteohub,2013-04-06 01:32:00,
2013-04-05 21:38:00,32.5,17.2,28.23,North,0,16.0,17.0,53,0.00,,,0.00,meteohub,2013-04-06 01:38:00,
2013-04-05 21:43:00,32.4,16.7,28.23,North,0,9.0,18.0,52,0.00,,,0.00,meteohub,2013-04-06 01:43:00,
2013-04-05 21:48:00,32.4,17.1,28.22,North,0,6.0,18.0,53,0.00,,,0.00,meteohub,2013-04-06 01:48:00,
2013-04-05 21:54:00,32.2,16.5,28.23,North,0,12.0,18.0,52,0.00,,,0.00,meteohub,2013-04-06 01:54:00,
2013-04-05 21:59:00,32.4,16.7,28.23,North,0,8.0,26.0,52,0.00,,,0.00,meteohub,2013-04-06 01:59:00,
2013-04-05 22:04:00,32.4,16.7,28.23,North,0,13.0,26.0,52,0.00,,,0.00,meteohub,2013-04-06 02:04:00,
2013-04-05 22:09:00,32.4,16.7,28.23,East,90,15.0,26.0,52,0.00,,,0.00,meteohub,2013-04-06 02:09:00,
2013-04-05 22:14:00,32.4,16.7,28.24,North,0,21.0,26.0,52,0.00,,,0.00,meteohub,2013-04-06 02:14:00,
2013-04-05 22:19:00,32.2,16.5,28.23,NW,315,20.0,21.0,52,0.00,,,0.00,meteohub,2013-04-06 02:19:00,
2013-04-05 22:24:00,32.0,16.3,28.23,NNW,338,8.0,21.0,52,0.00,,,0.00,meteohub,2013-04-06 02:24:00,
2013-04-05 22:29:00,32.0,16.0,28.22,NW,315,15.0,21.0,51,0.00,,,0.00,meteohub,2013-04-06 02:29:00,
2013-04-05 22:35:00,31.8,16.2,28.23,North,0,16.0,20.0,52,0.00,,,0.00,meteohub,2013-04-06 02:35:00,
2013-04-05 22:40:00,31.8,16.2,28.23,NW,315,15.0,17.0,52,0.00,,,0.00,meteohub,2013-04-06 02:40:00,
2013-04-05 22:45:00,31.8,16.2,28.23,West,270,13.0,18.0,52,0.00,,,0.00,meteohub,2013-04-06 02:45:00,
2013-04-05 22:50:00,31.6,16.0,28.23,NW,315,15.0,18.0,52,0.00,,,0.00,meteohub,2013-04-06 02:50:00,
2013-04-05 22:56:00,31.5,15.8,28.23,North,0,15.0,18.0,52,0.00,,,0.00,meteohub,2013-04-06 02:56:00,
2013-04-05 23:02:00,31.5,15.8,28.23,NE,45,12.0,16.0,52,0.00,,,0.00,meteohub,2013-04-06 03:02:00,
2013-04-05 23:07:00,31.5,15.8,28.23,North,0,12.0,16.0,52,0.00,,,0.00,meteohub,2013-04-06 03:07:00,
2013-04-05 23:12:00,31.5,15.4,28.23,North,0,23.0,23.0,51,0.00,,,0.00,meteohub,2013-04-06 03:12:00,
2013-04-05 23:17:00,31.3,15.3,28.23,North,0,16.0,23.0,51,0.00,,,0.00,meteohub,2013-04-06 03:17:00,
2013-04-05 23:22:00,31.3,15.3,28.24,North,0,8.0,23.0,51,0.00,,,0.00,meteohub,2013-04-06 03:22:00,
2013-04-05 23:27:00,31.3,15.3,28.23,NW,315,12.0,23.0,51,0.00,,,0.00,meteohub,2013-04-06 03:27:00,
2013-04-05 23:32:00,31.3,15.3,28.23,North,0,8.0,21.0,51,0.00,,,0.00,meteohub,2013-04-06 03:32:00,
2013-04-05 23:37:00,31.3,15.3,28.23,North,0,16.0,21.0,51,0.00,,,0.00,meteohub,2013-04-06 03:37:00,
2013-04-05 23:42:00,31.3,15.3,28.23,North,0,12.0,17.0,51,0.00,,,0.00,meteohub,2013-04-06 03:42:00,
2013-04-05 23:47:00,31.3,15.3,28.23,NW,315,15.0,18.0,51,0.00,,,0.00,meteohub,2013-04-06 03:47:00,
2013-04-05 23:52:00,31.1,15.1,28.23,North,0,11.0,18.0,51,0.00,,,0.00,meteohub,2013-04-06 03:52:00,
2013-04-05 23:57:00,30.9,14.9,28.23,NW,315,18.0,18.0,51,0.00,,,0.00,meteohub,2013-04-06 03:57:00,